QPF
0.00 0.00 0.00 0.00 0.00 0.00 0.00 0.00 0.00 0.00 0.00 0.00 0.00 0.00 0.00 0.01 0.00 0.01 0.02 0.02 0.02 0.02 0.01 0.00 0.00 0.00 0.00 0.00 0.00 0.00 0.00 0.00 0.00 0.00 0.00 0.00 0.00 0.00 0.00 0.00 0.00 0.00 0.00
0.00 0.00 0.00 0.00 0.00 0.00 0.00 0.00 0.00 0.00 0.00 0.00 0.00 0.00 0.01 0.01 0.01 0.01 0.01 0.01 0.01 0.02 0.01 0.01 0.01 0.01 0.01 0.00 0.00 0.00 0.00 0.00 0.00 0.00 0.00 0.00 0.00 0.00 0.00 0.00 0.00 0.00 0.00
0.00 0.00 0.00 0.00 0.00 0.00 0.00 0.00 0.00 0.00 0.00 0.00 0.00 0.00 0.00 0.00 0.00 0.00 0.00 0.01 0.01 0.02 0.02 0.02 0.02 0.02 0.03 0.02 0.02 0.02 0.01 0.01 0.01 0.01 0.01 0.01 0.01 0.01 0.01 0.00 0.00 0.00 0.00
0.00 0.00 0.00 0.00 0.00 0.00 0.00 0.00 0.00 0.00 0.00 0.00 0.00 0.00 0.00 0.00 0.00 0.00 0.00 0.01 0.01 0.02 0.03 0.03 0.04 0.04 0.04 0.03 0.04 0.05 0.04 0.04 0.03 0.03 0.03 0.02 0.02 0.02 0.02 0.01 0.01 0.01 0.00
0.00 0.00 0.00 0.00 0.00 0.00 0.00 0.00 0.00 0.00 0.00 0.00 0.00 0.00 0.00 0.00 0.00 0.00 0.00 0.00 0.01 0.01 0.02 0.03 0.04 0.05 0.05 0.06 0.07 0.07 0.08 0.07 0.06 0.06 0.05 0.04 0.04 0.03 0.02 0.02 0.01 0.01 0.01
0.00 0.00 0.00 0.00 0.00 0.00 0.00 0.00 0.00 0.00 0.00 0.00 0.00 0.00 0.00 0.00 0.00 0.00 0.00 0.00 0.00 0.01 0.02 0.03 0.04 0.06 0.07 0.09 0.10 0.11 0.12 0.11 0.10 0.08 0.07 0.07 0.06 0.06 0.06 0.05 0.04 0.03 0.02
0.00 0.00 0.00 0.00 0.00 0.00 0.00 0.00 0.00 0.00 0.00 0.00 0.00 0.00 0.00 0.00 0.00 0.00 0.00 0.00 0.01 0.01 0.02 0.04 0.05 0.06 0.08 0.11 0.12 0.12 0.12 0.12 0.10 0.09 0.08 0.08 0.08 0.07 0.07 0.06 0.05 0.04 0.04
0.00 0.00 0.00 0.00 0.00 0.00 0.00 0.00 0.00 0.00 0.00 0.00 0.00 0.00 0.00 0.00 0.00 0.00 0.00 0.01 0.01 0.02 0.03 0.05 0.06 0.07 0.08 0.09 0.11 0.12 0.12 0.12 0.12 0.10 0.09 0.08 0.08 0.07 0.07 0.08 0.08 0.08 0.06
0.00 0.00 0.00 0.00 0.00 0.00 0.00 0.00 0.00 0.00 0.00 0.00 0.00 0.00 0.00 0.00 0.00 0.00 0.00 0.01 0.01 0.02 0.03 0.04 0.05 0.06 0.07 0.08 0.09 0.10 0.11 0.11 0.11 0.11 0.11 0.11 0.10 0.10 0.10 0.10 0.10 0.10 0.08
0.00 0.00 0.00 0.00 0.00 0.00 0.00 0.00 0.00 0.00 0.00 0.00 0.00 0.00 0.00 0.00 0.00 0.00 0.00 0.00 0.00 0.01 0.02 0.03 0.03 0.04 0.05 0.06 0.07 0.08 0.09 0.10 0.11 0.10 0.11 0.11 0.12 0.12 0.11 0.10 0.09 0.08 0.07
0.00 0.00 0.00 0.00 0.00 0.00 0.00 0.00 0.00 0.00 0.00 0.00 0.00 0.00 0.00 0.00 0.00 0.00 0.00 0.00 0.00 0.01 0.01 0.02 0.02 0.03 0.03 0.04 0.05 0.06 0.07 0.09 0.11 0.12 0.14 0.16 0.16 0.15 0.14 0.13 0.12 0.11 0.09
0.00 0.00 0.00 0.00 0.00 0.00 0.00 0.00 0.00 0.00 0.00 0.00 0.00 0.00 0.00 0.00 0.00 0.00 0.00 0.00 0.00 0.00 0.01 0.01 0.01 0.02 0.02 0.03 0.03 0.05 0.06 0.08 0.10 0.13 0.15 0.16 0.16 0.16 0.15 0.14 0.12 0.09 0.07
0.00 0.00 0.00 0.00 0.00 0.00 0.00 0.00 0.00 0.00 0.00 0.00 0.00 0.00 0.00 0.00 0.00 0.00 0.00 0.00 0.00 0.00 0.01 0.01 0.01 0.01 0.02 0.02 0.03 0.04 0.05 0.07 0.08 0.10 0.10 0.11 0.11 0.10 0.09 0.08 0.06 0.04 0.03
0.00 0.00 0.00 0.00 0.00 0.00 0.00 0.00 0.00 0.00 0.00 0.00 0.00 0.00 0.00 0.00 0.00 0.00 0.00 0.00 0.00 0.01 0.01 0.02 0.02 0.02 0.03 0.03 0.04 0.05 0.05 0.05 0.05 0.06 0.07 0.08 0.08 0.07 0.05 0.04 0.03 0.02 0.02
0.00 0.00 0.00 0.00 0.00 0.00 0.00 0.00 0.00 0.00 0.00 0.00 0.00 0.00 0.00 0.00 0.00 0.00 0.00 0.01 0.02 0.03 0.03 0.03 0.04 0.04 0.04 0.05 0.05 0.05 0.05 0.05 0.06 0.07 0.07 0.06 0.06 0.05 0.04 0.03 0.02 0.02 0.01
0.00 0.00 0.00 0.00 0.00 0.00 0.00 0.00 0.00 0.00 0.00 0.00 0.00 0.00 0.00 0.01 0.01 0.01 0.02 0.02 0.03 0.04 0.05 0.06 0.07 0.07 0.07 0.08 0.07 0.06 0.06 0.06 0.06 0.06 0.05 0.05 0.05 0.04 0.03 0.02 0.01 0.01 0.01
0.00 0.00 0.00 0.00 0.00 0.00 0.00 0.00 0.00 0.00 0.00 0.00 0.00 0.00 0.01 0.01 0.02 0.03 0.03 0.05 0.06 0.07 0.07 0.07 0.08 0.08 0.09 0.09 0.07 0.06 0.05 0.05 0.05 0.04 0.04 0.03 0.02 0.02 0.01 0.01 0.00 0.00 0.00
0.00 0.00 0.00 0.00 0.00 0.00 0.00 0.00 0.00 0.00 0.00 0.00 0.00 0.00 0.01 0.01 0.03 0.03 0.04 0.05 0.07 0.09 0.10 0.10 0.08 0.08 0.08 0.08 0.06 0.06 0.05 0.05 0.04 0.04 0.03 0.02 0.01 0.01 0.00 0.00 0.00 0.00 0.00
0.00 0.00 0.00 0.00 0.00 0.00 0.00 0.00 0.00 0.00 0.00 0.00 0.01 0.01 0.01 0.02 0.04 0.04 0.04 0.05 0.07 0.09 0.09 0.09 0.10 0.10 0.09 0.07 0.05 0.04 0.04 0.03 0.03 0.02 0.01 0.01 0.01 0.00 0.00 0.00 0.00 0.00 0.00
0.00 0.00 0.00 0.00 0.00 0.00 0.00 0.00 0.00 0.00 0.00 0.00 0.00 0.01 0.02 0.03 0.04 0.05 0.05 0.06 0.06 0.08 0.09 0.08 0.07 0.07 0.07 0.06 0.04 0.03 0.02 0.02 0.01 0.01 0.00 0.00 0.00 0.00 0.00 0.00 0.00 0.00 0.00
0.00 0.00 0.00 0.00 0.00 0.00 0.00 0.00 0.00 0.00 0.00 0.00 0.00 0.01 0.01 0.02 0.02 0.02 0.03 0.04 0.05 0.06 0.07 0.07 0.07 0.05 0.04 0.03 0.02 0.01 0.01 0.01 0.00 0.00 0.00 0.00 0.00 0.00 0.00 0.00 0.00 0.00 0.00
0.00 0.00 0.00 0.00 0.00 0.00 0.00 0.00 0.00 0.00 0.00 0.00 0.00 0.01 0.01 0.01 0.02 0.02 0.02 0.03 0.04 0.05 0.05 0.05 0.04 0.03 0.02 0.01 0.01 0.00 0.00 0.00 0.00 0.00 0.00 0.00 0.00 0.00 0.00 0.00 0.00 0.00 0.00
0.00 0.00 0.00 0.00 0.00 0.00 0.00 0.00 0.00 0.00 0.00 0.00 0.00 0.01 0.01 0.01 0.01 0.02 0.02 0.03 0.02 0.02 0.02 0.02 0.02 0.01 0.00 0.00 0.00 0.00 0.00 0.00 0.00 0.00 0.00 0.00 0.00 0.00 0.00 0.00 0.00 0.00 0.00
0.00 0.00 0.00 0.00 0.00 0.00 0.00 0.00 0.00 0.00 0.00 0.00 0.00 0.01 0.01 0.01 0.01 0.01 0.01 0.01 0.01 0.01 0.01 0.01 0.01 0.00 0.00 0.00 0.00 0.00 0.00 0.00 0.00 0.00 0.00 0.00 0.00 0.00 0.00 0.00 0.00 0.00 0.00
0.00 0.00 0.00 0.00 0.00 0.00 0.00 0.00 0.00 0.00 0.00 0.00 0.00 0.01 0.01 0.01 0.01 0.01 0.01 0.01 0.00 0.00 0.00 0.00 0.00 0.00 0.00 0.00 0.00 0.00 0.00 0.00 0.00 0.00 0.00 0.00 0.00 0.00 0.00 0.00 0.00 0.00 0.00
0.00 0.00 0.00 0.00 0.00 0.00 0.00 0.00 0.00 0.00 0.00 0.00 0.00 0.01 0.00 0.00 0.00 0.00 0.00 0.00 0.00 0.00 0.00 0.00 0.00 0.00 0.00 0.00 0.00 0.00 0.00 0.00 0.00 0.00 0.00 0.00 0.00 0.00 0.00 0.00 0.00 0.00 0.00
MSLP
1011.81 1011.81 1011.83 1011.85 1011.88 1011.92 1012.00 1012.11 1012.27 1012.48 1012.72 1012.99 1013.27 1013.55 1013.81 1014.06 1014.28 1014.49 1014.70 1014.91 1015.14 1015.38 1015.64 1015.94 1016.26 1016.62 1017.01 1017.43 1017.86 1018.31 1018.75 1019.18 1019.56 1019.90 1020.19 1020.42 1020.62 1020.79 1020.95 1021.13 1021.33 1021.56 1021.82
1011.93 1011.90 1011.88 1011.86 1011.85 1011.86 1011.89 1011.97 1012.09 1012.24 1012.42 1012.63 1012.84 1013.04 1013.24 1013.43 1013.61 1013.79 1013.98 1014.19 1014.43 1014.69 1014.97 1015.28 1015.62 1015.97 1016.35 1016.74 1017.15 1017.57 1017.98 1018.39 1018.77 1019.13 1019.45 1019.73 1019.99 1020.23 1020.47 1020.72 1020.99 1021.28 1021.61
1012.17 1012.12 1012.06 1012.01 1011.96 1011.94 1011.94 1011.97 1012.04 1012.14 1012.25 1012.38 1012.49 1012.60 1012.71 1012.81 1012.92 1013.05 1013.21 1013.41 1013.65 1013.92 1014.22 1014.54 1014.88 1015.23 1015.59 1015.96 1016.33 1016.71 1017.10 1017.48 1017.85 1018.22 1018.57 1018.91 1019.24 1019.57 1019.91 1020.26 1020.63 1021.01 1021.40
1012.48 1012.41 1012.34 1012.26 1012.19 1012.14 1012.11 1012.10 1012.12 1012.16 1012.19 1012.22 1012.23 1012.24 1012.23 1012.23 1012.25 1012.31 1012.42 1012.59 1012.81 1013.09 1013.40 1013.74 1014.09 1014.45 1014.81 1015.16 1015.51 1015.87 1016.22 1016.59 1016.96 1017.34 1017.72 1018.12 1018.53 1018.95 1019.39 1019.85 1020.32 1020.79 1021.26
1012.79 1012.73 1012.65 1012.56 1012.48 1012.40 1012.35 1012.31 1012.28 1012.25 1012.21 1012.14 1012.04 1011.92 1011.80 1011.69 1011.61 1011.58 1011.63 1011.77 1011.97 1012.25 1012.57 1012.93 1013.31 1013.69 1014.07 1014.43 1014.79 1015.14 1015.49 1015.85 1016.23 1016.63 1017.05 1017.50 1017.98 1018.49 1019.02 1019.57 1020.13 1020.68 1021.20
1013.07 1013.02 1012.95 1012.86 1012.78 1012.70 1012.62 1012.55 1012.48 1012.38 1012.26 1012.09 1011.89 1011.65 1011.41 1011.18 1011.01 1010.90 1010.89 1010.98 1011.16 1011.44 1011.78 1012.17 1012.59 1013.02 1013.43 1013.84 1014.23 1014.61 1014.99 1015.38 1015.79 1016.22 1016.68 1017.17 1017.70 1018.27 1018.87 1019.49 1020.10 1020.70 1021.25
1013.26 1013.25 1013.20 1013.13 1013.05 1012.97 1012.88 1012.79 1012.67 1012.51 1012.31 1012.05 1011.75 1011.41 1011.06 1010.73 1010.47 1010.29 1010.22 1010.27 1010.44 1010.71 1011.08 1011.51 1011.98 1012.46 1012.94 1013.42 1013.88 1014.32 1014.76 1015.20 1015.65 1016.12 1016.62 1017.15 1017.72 1018.32 1018.95 1019.59 1020.23 1020.84 1021.40
1013.35 1013.38 1013.37 1013.33 1013.27 1013.20 1013.11 1012.99 1012.84 1012.63 1012.36 1012.02 1011.63 1011.20 1010.77 1010.36 1010.02 1009.79 1009.67 1009.69 1009.85 1010.13 1010.52 1010.98 1011.50 1012.06 1012.62 1013.17 1013.72 1014.25 1014.77 1015.28 1015.79 1016.31 1016.84 1017.40 1017.99 1018.60 1019.23 1019.86 1020.48 1021.07 1021.60
1013.34 1013.42 1013.46 1013.46 1013.44 1013.39 1013.30 1013.17 1012.99 1012.73 1012.40 1012.00 1011.55 1011.06 1010.56 1010.11 1009.73 1009.46 1009.31 1009.32 1009.47 1009.75 1010.15 1010.65 1011.21 1011.82 1012.46 1013.10 1013.73 1014.36 1014.96 1015.55 1016.13 1016.70 1017.27 1017.84 1018.43 1019.02 1019.62 1020.22 1020.80 1021.33 1021.80
1013.25 1013.38 1013.48 1013.54 1013.57 1013.55 1013.48 1013.35 1013.14 1012.85 1012.49 1012.05 1011.55 1011.02 1010.50 1010.03 1009.63 1009.35 1009.20 1009.20 1009.35 1009.63 1010.04 1010.55 1011.14 1011.79 1012.48 1013.18 1013.89 1014.59 1015.27 1015.93 1016.57 1017.18 1017.78 1018.36 1018.93 1019.49 1020.05 1020.59 1021.10 1021.57 1021.97
1013.10 1013.30 1013.47 1013.59 1013.67 1013.70 1013.66 1013.54 1013.33 1013.03 1012.65 1012.19 1011.69 1011.16 1010.65 1010.18 1009.81 1009.54 1009.41 1009.42 1009.56 1009.84 1010.24 1010.74 1011.33 1011.98 1012.68 1013.41 1014.16 1014.91 1015.64 1016.35 1017.03 1017.67 1018.28 1018.86 1019.41 1019.93 1020.43 1020.90 1021.34 1021.73 1022.05
1012.94 1013.20 1013.43 1013.63 1013.78 1013.86 1013.86 1013.77 1013.58 1013.29 1012.92 1012.48 1011.99 1011.50 1011.02 1010.61 1010.28 1010.06 1009.96 1009.98 1010.13 1010.40 1010.77 1011.25 1011.80 1012.42 1013.10 1013.82 1014.56 1015.31 1016.05 1016.78 1017.47 1018.12 1018.73 1019.29 1019.80 1020.28 1020.72 1021.12 1021.48 1021.79 1022.04
1012.78 1013.10 1013.41 1013.69 1013.91 1014.05 1014.10 1014.05 1013.90 1013.65 1013.31 1012.91 1012.48 1012.04 1011.64 1011.30 1011.04 1010.88 1010.83 1010.88 1011.04 1011.30 1011.64 1012.07 1012.56 1013.12 1013.74 1014.40 1015.10 1015.81 1016.53 1017.23 1017.90 1018.53 1019.11 1019.64 1020.11 1020.53 1020.91 1021.24 1021.52 1021.76 1021.93
1012.64 1013.03 1013.42 1013.77 1014.06 1014.27 1014.38 1014.39 1014.29 1014.08 1013.80 1013.47 1013.12 1012.77 1012.46 1012.22 1012.05 1011.97 1011.97 1012.07 1012.24 1012.48 1012.79 1013.16 1013.58 1014.06 1014.60 1015.17 1015.79 1016.43 1017.08 1017.72 1018.34 1018.92 1019.45 1019.93 1020.34 1020.71 1021.02 1021.27 1021.48 1021.64 1021.75
1012.56 1013.01 1013.46 1013.88 1014.24 1014.52 1014.69 1014.75 1014.71 1014.57 1014.37 1014.12 1013.87 1013.62 1013.42 1013.29 1013.22 1013.22 1013.30 1013.44 1013.62 1013.86 1014.13 1014.45 1014.80 1015.19 1015.63 1016.10 1016.62 1017.16 1017.72 1018.28 1018.82 1019.32 1019.78 1020.19 1020.53 1020.83 1021.06 1021.25 1021.38 1021.47 1021.51
1012.54 1013.05 1013.56 1014.04 1014.45 1014.78 1015.00 1015.12 1015.14 1015.08 1014.96 1014.81 1014.66 1014.53 1014.44 1014.41 1014.44 1014.53 1014.68 1014.85 1015.07 1015.30 1015.55 1015.81 1016.10 1016.41 1016.75 1017.13 1017.54 1017.98 1018.43 1018.89 1019.33 1019.74 1020.11 1020.43 1020.70 1020.91 1021.07 1021.18 1021.25 1021.27 1021.25
1012.62 1013.18 1013.73 1014.24 1014.69 1015.05 1015.31 1015.47 1015.55 1015.56 1015.53 1015.47 1015.43 1015.41 1015.43 1015.49 1015.62 1015.78 1015.98 1016.20 1016.43 1016.66 1016.89 1017.12 1017.36 1017.61 1017.88 1018.17 1018.48 1018.82 1019.17 1019.52 1019.85 1020.16 1020.44 1020.66 1020.85 1020.97 1021.05 1021.09 1021.08 1021.04 1020.96
1012.80 1013.40 1013.98 1014.50 1014.95 1015.32 1015.60 1015.80 1015.93 1016.00 1016.04 1016.07 1016.12 1016.20 1016.31 1016.46 1016.65 1016.87 1017.11 1017.35 1017.60 1017.83 1018.05 1018.26 1018.46 1018.67 1018.89 1019.11 1019.35 1019.60 1019.85 1020.10 1020.34 1020.55 1020.72 1020.85 1020.95 1021.00 1021.00 1020.97 1020.90 1020.79 1020.66
1013.11 1013.72 1014.29 1014.80 1015.24 1015.60 1015.88 1016.09 1016.25 1016.38 1016.48 1016.59 1016.72 1016.87 1017.05 1017.26 1017.50 1017.75 1018.01 1018.26 1018.50 1018.73 1018.94 1019.14 1019.33 1019.52 1019.70 1019.88 1020.07 1020.25 1020.43 1020.59 1020.73 1020.85 1020.93 1020.98 1020.99 1020.97 1020.90 1020.81 1020.69 1020.54 1020.37
1013.51 1014.11 1014.66 1015.14 1015.54 1015.88 1016.14 1016.36 1016.54 1016.70 1016.86 1017.03 1017.21 1017.42 1017.65 1017.89 1018.15 1018.41 1018.67 1018.91 1019.15 1019.36 1019.57 1019.76 1019.94 1020.12 1020.28 1020.44 1020.59 1020.73 1020.85 1020.94 1021.01 1021.05 1021.05 1021.02 1020.97 1020.88 1020.77 1020.64 1020.48 1020.30 1020.11
1013.96 1014.53 1015.04 1015.48 1015.84 1016.14 1016.38 1016.60 1016.79 1016.98 1017.18 1017.39 1017.62 1017.87 1018.12 1018.39 1018.64 1018.90 1019.13 1019.36 1019.57 1019.77 1019.96 1020.15 1020.33 1020.50 1020.66 1020.81 1020.94 1021.05 1021.12 1021.16 1021.17 1021.14 1021.08 1021.00 1020.89 1020.76 1020.61 1020.46 1020.28 1020.10 1019.89
1014.38 1014.92 1015.38 1015.77 1016.09 1016.36 1016.59 1016.80 1017.01 1017.22 1017.46 1017.71 1017.97 1018.24 1018.51 1018.78 1019.02 1019.26 1019.47 1019.67 1019.85 1020.03 1020.21 1020.39 1020.57 1020.74 1020.90 1021.05 1021.16 1021.25 1021.29 1021.29 1021.24 1021.17 1021.06 1020.93 1020.78 1020.63 1020.47 1020.30 1020.13 1019.94 1019.74
1014.72 1015.21 1015.63 1015.98 1016.27 1016.52 1016.75 1016.96 1017.19 1017.43 1017.70 1017.98 1018.27 1018.56 1018.84 1019.10 1019.34 1019.55 1019.74 1019.92 1020.08 1020.24 1020.40 1020.57 1020.75 1020.92 1021.08 1021.22 1021.32 1021.38 1021.40 1021.36 1021.28 1021.17 1021.02 1020.86 1020.70 1020.53 1020.36 1020.20 1020.03 1019.86 1019.67
1014.89 1015.35 1015.74 1016.08 1016.36 1016.61 1016.84 1017.08 1017.33 1017.61 1017.90 1018.21 1018.53 1018.84 1019.13 1019.40 1019.63 1019.83 1020.00 1020.16 1020.31 1020.46 1020.61 1020.77 1020.94 1021.11 1021.26 1021.38 1021.47 1021.52 1021.50 1021.44 1021.33 1021.19 1021.02 1020.83 1020.65 1020.48 1020.32 1020.16 1020.01 1019.85 1019.67
1014.88 1015.32 1015.70 1016.04 1016.34 1016.61 1016.87 1017.14 1017.42 1017.73 1018.06 1018.40 1018.75 1019.08 1019.38 1019.66 1019.90 1020.10 1020.28 1020.43 1020.58 1020.72 1020.87 1021.02 1021.18 1021.34 1021.48 1021.59 1021.66 1021.68 1021.64 1021.55 1021.41 1021.25 1021.05 1020.86 1020.67 1020.49 1020.33 1020.18 1020.04 1019.89 1019.71
1014.68 1015.13 1015.53 1015.89 1016.22 1016.53 1016.84 1017.14 1017.47 1017.82 1018.17 1018.54 1018.91 1019.26 1019.59 1019.89 1020.15 1020.37 1020.56 1020.72 1020.88 1021.02 1021.17 1021.32 1021.47 1021.61 1021.73 1021.82 1021.87 1021.86 1021.80 1021.68 1021.52 1021.34 1021.13 1020.92 1020.72 1020.54 1020.38 1020.24 1020.09 1019.94 1019.76
Thickness
5668 5673 5676 5680 5682 5684 5686 5688 5688 5688 5685 5683 5680 5678 5678 5678 5676 5675 5674 5672 5670 5667 5664 5662 5659 5656 5653 5650 5646 5640 5635 5631 5627 5622 5617 5614 5611 5610 5607 5604 5601 5596 5592
5660 5664 5669 5673 5676 5678 5680 5682 5683 5683 5682 5681 5679 5678 5676 5675 5674 5672 5670 5669 5667 5665 5662 5659 5657 5653 5650 5646 5643 5638 5632 5627 5621 5620 5614 5611 5608 5604 5602 5599 5595 5592 5586
5653 5658 5662 5665 5668 5670 5673 5674 5676 5677 5677 5676 5674 5672 5670 5670 5669 5669 5669 5668 5665 5662 5659 5656 5653 5650 5646 5644 5640 5635 5629 5624 5617 5616 5614 5612 5613 5607 5597 5593 5589 5585 5581
5644 5648 5652 5656 5658 5661 5664 5665 5668 5669 5670 5669 5668 5667 5666 5666 5669 5669 5667 5665 5661 5658 5656 5652 5649 5646 5642 5640 5636 5631 5627 5621 5614 5608 5606 5606 5608 5603 5595 5585 5581 5577 5573
5635 5639 5642 5645 5648 5651 5653 5655 5658 5660 5661 5662 5662 5661 5662 5664 5665 5664 5663 5661 5658 5655 5652 5648 5644 5641 5638 5635 5631 5626 5621 5618 5613 5605 5599 5593 5589 5591 5592 5585 5574 5566 5563
5626 5629 5632 5635 5638 5641 5643 5645 5648 5650 5652 5653 5655 5655 5656 5656 5656 5657 5657 5655 5653 5650 5647 5643 5639 5635 5632 5628 5624 5619 5614 5611 5607 5601 5595 5590 5585 5582 5579 5577 5567 5559 5553
5618 5622 5624 5626 5628 5631 5633 5636 5639 5641 5643 5644 5646 5648 5648 5648 5649 5649 5649 5648 5646 5644 5641 5636 5632 5628 5624 5620 5615 5610 5605 5601 5596 5592 5587 5582 5578 5574 5569 5564 5556 5549 5541
5610 5612 5614 5616 5618 5620 5622 5625 5628 5630 5633 5635 5637 5639 5640 5640 5642 5642 5641 5641 5640 5637 5633 5628 5623 5619 5614 5609 5603 5598 5594 5589 5584 5580 5575 5569 5564 5560 5556 5551 5544 5535 5527
5601 5603 5605 5606 5608 5610 5612 5614 5617 5620 5622 5624 5627 5630 5631 5632 5633 5633 5632 5631 5629 5626 5622 5617 5611 5606 5601 5596 5590 5584 5580 5575 5570 5566 5560 5555 5549 5545 5541 5536 5533 5527 5520
5593 5594 5596 5596 5597 5599 5601 5604 5606 5609 5611 5614 5616 5618 5620 5621 5622 5621 5620 5618 5616 5612 5607 5602 5597 5591 5585 5580 5574 5569 5565 5560 5555 5551 5546 5540 5535 5531 5526 5521 5516 5511 5506
5585 5586 5586 5587 5587 5589 5592 5594 5597 5599 5601 5603 5605 5607 5609 5609 5610 5609 5607 5604 5600 5596 5591 5586 5580 5574 5568 5562 5557 5553 5549 5545 5540 5536 5531 5526 5522 5517 5511 5505 5500 5496 5490
5577 5577 5577 5578 5579 5581 5583 5585 5586 5588 5590 5592 5594 5595 5596 5597 5596 5595 5592 5588 5584 5579 5573 5567 5561 5554 5548 5544 5540 5536 5532 5529 5525 5521 5517 5512 5507 5503 5498 5492 5486 5481 5477
5570 5571 5571 5571 5571 5572 5573 5575 5576 5577 5579 5580 5582 5583 5582 5582 5580 5578 5574 5570 5565 5559 5552 5546 5539 5533 5528 5525 5522 5519 5516 5513 5510 5507 5503 5499 5494 5489 5483 5478 5473 5468 5464
5566 5566 5565 5563 5562 5562 5563 5565 5566 5566 5567 5568 5569 5568 5567 5565 5563 5559 5555 5550 5545 5538 5531 5524 5518 5512 5508 5506 5504 5502 5498 5496 5493 5491 5488 5484 5480 5476 5471 5467 5462 5458 5454
5561 5559 5558 5557 5555 5555 5555 5555 5556 5556 5556 5556 5555 5553 5551 5549 5545 5541 5537 5531 5525 5518 5512 5506 5500 5495 5491 5488 5487 5486 5483 5480 5477 5475 5472 5470 5467 5463 5459 5456 5452 5447 5443
5556 5553 5550 5549 5548 5547 5546 5546 5546 5545 5545 5544 5542 5539 5536 5532 5528 5524 5519 5514 5508 5501 5495 5490 5486 5482 5478 5475 5473 5471 5468 5466 5464 5462 5459 5457 5454 5450 5447 5444 5441 5437 5433
5551 5546 5544 5541 5539 5538 5537 5537 5536 5535 5534 5532 5529 5525 5522 5518 5513 5508 5504 5498 5492 5487 5481 5477 5473 5470 5466 5463 5461 5459 5457 5455 5453 5450 5448 5446 5443 5439 5436 5433 5429 5425 5420
5543 5539 5536 5533 5531 5529 5528 5527 5526 5525 5523 5520 5516 5512 5509 5504 5499 5495 5490 5485 5479 5474 5470 5466 5463 5459 5456 5453 5451 5448 5446 5444 5442 5440 5438 5436 5433 5429 5426 5423 5419 5415 5410
5534 5531 5528 5525 5523 5521 5520 5518 5517 5515 5513 5509 5505 5502 5498 5493 5488 5483 5478 5473 5469 5464 5460 5456 5453 5450 5447 5444 5442 5440 5438 5435 5433 5430 5428 5426 5423 5419 5416 5413 5409 5405 5401
5524 5521 5519 5518 5516 5514 5512 5511 5508 5506 5503 5499 5496 5492 5489 5484 5478 5473 5469 5464 5460 5456 5452 5448 5444 5442 5439 5437 5434 5432 5431 5429 5426 5423 5420 5416 5413 5410 5407 5403 5399 5394 5389
5516 5513 5512 5510 5508 5506 5505 5503 5500 5497 5494 5491 5487 5483 5479 5475 5470 5465 5461 5457 5453 5448 5445 5441 5437 5435 5433 5430 5428 5425 5424 5422 5419 5416 5412 5408 5404 5401 5397 5392 5387 5381 5375
5508 5507 5505 5503 5501 5499 5498 5496 5492 5489 5486 5483 5480 5476 5471 5467 5463 5459 5454 5450 5446 5442 5438 5435 5431 5428 5426 5423 5421 5418 5416 5413 5410 5407 5403 5399 5394 5390 5385 5380 5374 5368 5362
5503 5501 5499 5497 5494 5493 5492 5489 5485 5482 5479 5476 5472 5468 5464 5460 5456 5453 5448 5444 5441 5438 5434 5431 5427 5423 5419 5416 5413 5410 5407 5404 5401 5398 5393 5388 5384 5379 5374 5368 5362 5355 5349
5498 5496 5493 5491 5489 5487 5485 5482 5479 5476 5473 5470 5466 5462 5458 5454 5450 5446 5443 5440 5437 5433 5429 5425 5421 5417 5414 5410 5407 5404 5400 5396 5393 5389 5384 5378 5373 5367 5362 5356 5350 5343 5336
5494 5491 5489 5487 5485 5482 5479 5476 5473 5471 5468 5464 5460 5456 5452 5448 5444 5440 5438 5435 5431 5428 5424 5420 5416 5412 5408 5403 5399 5396 5393 5389 5385 5380 5375 5370 5364 5359 5353 5346 5339 5332 5325
5490 5487 5485 5482 5479 5477 5474 5471 5468 5466 5463 5459 5455 5451 5446 5442 5439 5436 5431 5425 5423 5419 5415 5411 5408 5404 5400 5396 5392 5388 5383 5379 5374 5369 5365 5360 5353 5347 5340 5334 5328 5322 5316